Wetbulb
46.39 46.09 45.67 45.00 45.23 45.92 46.59 46.53 45.42 45.36 45.92 46.34 46.81 46.85 46.81 46.86 47.00 47.30 47.71 47.78 48.06 48.37 48.67 49.07 49.04 49.11 49.11 48.65 48.72 48.89 49.00 48.64 48.43 47.56 46.95 47.46 48.08 48.25 48.26 47.97 48.12 48.26 48.49 48.76 48.85 48.89 48.71 48.31 48.04 47.91 47.73 47.19 47.10 47.19 47.19 47.19 46.83 46.65 46.47 46.29 46.29 45.88 45.52 44.98 44.80 44.35 43.81 43.27 43.68
45.66 45.18 44.81 44.17 44.26 45.14 46.11 46.28 46.09 46.03 46.16 46.73 46.69 46.47 46.28 46.36 46.47 46.83 47.21 47.27 47.81 48.19 48.54 49.02 48.61 48.84 49.09 48.96 49.17 49.28 49.29 49.04 48.90 48.72 48.55 48.65 48.61 48.61 48.56 48.52 48.35 48.31 48.31 48.54 48.58 48.76 48.72 48.27 48.05 47.82 47.60 47.32 46.92 46.69 46.69 46.74 46.60 46.38 46.20 46.06 46.20 46.11 45.88 45.47 45.25 44.80 44.34 43.98 43.99
45.08 45.21 45.59 45.76 45.83 46.01 46.20 46.33 46.31 45.99 45.82 46.21 46.38 46.29 46.17 46.20 46.36 46.70 47.10 47.33 47.50 47.86 48.37 48.77 48.70 48.60 48.55 48.45 48.64 48.65 48.65 48.52 48.61 48.57 48.53 48.18 47.73 47.68 47.81 47.81 47.86 47.81 47.77 48.31 48.27 48.18 48.09 47.96 47.60 47.14 46.78 46.92 46.47 46.29 46.24 46.42 46.38 46.11 45.93 45.97 46.38 46.65 46.60 46.51 46.29 45.92 45.61 45.24 44.70
44.57 44.87 45.20 45.19 44.73 44.69 45.01 45.56 45.23 45.21 45.28 45.95 45.68 45.50 45.67 46.09 46.58 47.00 47.04 46.82 47.09 47.64 48.19 48.31 48.35 47.96 47.61 47.45 47.54 47.73 47.64 47.23 47.50 47.68 47.64 47.14 46.87 46.69 46.65 46.88 47.05 47.05 47.19 47.59 47.68 47.64 47.50 47.46 47.19 46.92 46.56 46.29 46.02 45.93 45.93 46.29 46.15 45.97 45.93 46.11 46.65 46.78 46.87 46.78 46.83 46.56 46.19 45.42 44.75
44.36 44.55 44.66 44.74 44.15 44.20 44.57 44.63 44.44 44.50 44.78 45.26 45.45 45.63 45.83 45.97 46.61 46.82 46.96 47.09 47.47 47.58 47.54 47.30 47.38 47.13 46.79 46.61 46.70 46.87 46.96 46.69 45.88 46.29 46.83 46.38 46.15 46.02 46.07 46.25 46.25 46.47 46.78 47.37 47.32 47.23 47.10 46.97 46.74 46.65 46.47 46.11 46.06 46.02 46.11 46.24 46.06 45.93 45.97 46.38 46.74 46.69 46.47 46.28 46.28 46.06 45.56 44.75 44.34
44.26 44.15 44.07 44.31 43.82 43.95 44.22 44.29 43.83 43.97 44.30 44.69 44.54 44.53 44.85 45.52 46.36 46.33 46.19 46.45 46.57 46.51 46.17 45.81 45.77 45.63 45.62 45.98 46.11 46.33 46.47 46.47 46.11 45.93 45.88 45.79 45.93 45.84 45.80 45.98 46.11 46.51 46.92 47.10 46.87 46.74 46.61 46.38 46.16 46.20 46.25 46.38 46.24 46.42 46.42 46.47 46.24 46.06 46.15 46.33 46.47 46.28 46.01 45.65 45.52 45.20 44.52 43.62 43.30
44.02 43.93 43.94 43.82 43.73 43.76 43.75 43.60 43.83 43.93 43.93 44.10 43.70 43.52 43.59 43.87 44.97 45.03 44.82 45.51 45.98 45.90 45.51 45.20 45.05 45.13 45.39 45.57 45.70 45.93 46.11 46.11 45.79 45.43 45.21 45.57 45.84 45.89 46.07 46.07 46.16 46.34 46.34 46.07 45.75 45.71 45.89 46.11 45.98 45.84 45.66 45.47 45.93 45.79 45.39 45.16 45.38 45.56 45.88 45.88 45.83 45.60 45.33 44.97 44.88 44.43 43.70 42.80 42.53
43.73 43.47 43.36 43.33 43.36 43.26 43.02 43.01 43.27 43.49 43.63 43.88 43.39 42.97 42.58 42.34 43.74 44.29 44.47 44.99 45.08 45.12 45.06 44.97 44.86 44.99 45.03 45.21 45.34 45.61 45.79 45.93 45.48 45.12 44.94 45.08 45.21 45.22 45.18 45.23 45.05 45.04 44.90 44.72 44.31 44.26 44.58 45.43 45.30 44.85 44.31 44.04 43.77 43.01 42.34 42.07 42.34 42.73 43.35 43.94 44.38 44.52 44.52 44.25 43.88 43.52 43.16 42.80 42.66
43.12 42.96 42.81 42.92 42.79 42.70 42.68 42.72 42.77 42.81 42.90 42.90 42.79 42.59 42.45 42.24 43.46 43.81 43.90 44.12 43.92 43.95 44.24 44.55 44.50 44.58 44.85 45.07 45.25 45.48 45.53 45.45 45.00 44.68 44.37 44.15 43.89 43.67 43.58 43.71 43.53 43.44 43.34 43.19 43.10 43.10 43.37 43.81 42.96 42.11 41.39 41.17 40.72 40.17 39.73 39.79 39.52 39.61 39.95 40.52 40.64 40.86 41.13 41.35 41.18 41.14 41.10 40.88 40.43
42.01 42.08 42.13 42.31 42.15 42.22 42.33 42.53 42.62 42.57 42.50 42.67 42.66 42.95 43.03 42.33 43.15 43.41 43.46 43.41 43.10 43.25 43.64 44.09 44.31 44.67 44.94 45.11 45.21 45.17 44.96 44.52 44.08 43.64 43.21 42.94 42.59 42.26 42.15 42.21 42.17 42.17 42.07 42.02 42.11 42.03 41.99 41.66 40.50 39.70 39.30 39.18 38.74 38.44 38.32 38.38 37.97 37.73 37.71 37.96 37.57 37.13 37.04 37.46 37.80 37.94 37.81 37.46 37.14
41.19 41.35 41.58 41.88 41.86 42.05 42.34 42.35 42.67 42.84 42.95 43.10 43.39 43.85 44.05 43.44 43.28 43.13 42.82 42.75 42.71 42.79 43.06 43.73 44.13 44.71 45.30 45.70 45.57 44.91 44.21 43.64 43.01 42.44 42.15 41.93 41.95 41.79 41.72 41.39 41.52 41.30 41.12 40.83 40.83 40.74 40.43 39.88 38.92 38.13 37.79 37.91 37.71 37.48 37.24 37.01 36.73 36.46 36.36 36.22 36.12 35.87 35.73 36.08 36.48 36.57 36.57 36.48 36.28
40.93 41.17 41.55 41.89 42.06 42.31 42.40 42.41 42.76 43.02 43.19 43.31 43.75 44.11 44.22 43.91 43.09 42.48 42.19 42.18 42.35 42.57 43.07 43.75 44.23 44.85 45.48 46.07 45.53 44.60 43.50 42.81 42.04 41.49 41.18 41.09 41.21 41.32 41.26 40.99 40.72 40.42 40.04 39.57 39.58 39.38 38.97 38.22 37.75 37.26 36.94 37.02 37.01 36.83 36.52 36.21 35.87 35.69 35.52 35.49 35.48 35.37 35.20 35.29 35.58 35.87 36.00 36.04 35.80
40.91 41.30 41.74 42.04 42.18 42.30 42.33 42.42 42.76 42.96 43.01 42.95 43.27 43.37 43.20 42.95 42.23 41.84 41.81 41.99 42.21 42.75 43.26 43.67 44.28 44.85 45.26 45.53 44.96 44.08 43.12 42.31 41.55 40.99 40.56 40.41 40.40 40.36 40.16 39.85 39.16 38.81 38.52 38.32 38.35 38.07 37.80 37.20 36.84 36.49 36.38 36.33 36.43 36.31 36.02 35.83 35.53 35.27 35.11 34.99 34.99 34.93 34.95 35.09 35.37 35.50 35.68 35.55 35.31
41.06 41.41 41.74 41.94 42.13 42.23 42.28 42.18 42.54 42.59 42.48 42.21 42.30 42.25 42.14 41.90 41.58 41.45 41.56 41.83 41.94 42.39 42.89 43.22 43.83 44.37 44.54 44.37 43.80 43.19 42.57 42.02 41.43 40.70 40.10 39.78 39.52 39.01 38.55 38.15 37.66 37.34 37.09 36.92 37.04 36.94 36.83 36.65 36.49 36.20 36.02 35.83 35.77 35.68 35.61 35.40 35.14 34.95 34.82 34.73 34.63 34.70 34.78 35.17 35.47 35.47 35.43 35.30 35.03
41.08 41.42 41.57 41.71 41.78 41.91 42.00 41.97 42.26 42.20 41.89 41.56 41.55 41.53 41.36 41.11 40.89 40.95 41.11 41.28 41.43 41.94 42.57 42.89 43.25 43.43 43.35 43.05 42.57 42.21 41.88 41.48 40.85 40.18 39.48 38.71 38.17 37.52 36.98 36.47 36.37 36.26 36.16 35.98 35.91 35.93 35.91 36.13 36.16 35.94 35.64 35.52 35.23 35.07 34.99 34.88 34.97 35.03 34.93 34.85 34.81 34.83 35.00 35.31 35.49 35.53 35.44 35.22 35.04
40.88 41.09 41.22 41.32 41.30 41.47 41.59 41.72 42.05 41.93 41.55 41.20 40.98 40.95 40.87 40.67 40.86 40.80 40.70 40.85 41.18 41.69 42.26 42.50 42.59 42.59 42.28 41.49 41.28 41.13 40.82 40.21 39.52 38.87 37.99 37.18 36.36 35.80 35.23 34.77 34.59 34.77 34.93 35.16 34.96 35.07 35.22 35.22 35.36 35.29 35.17 34.98 34.82 34.73 34.64 34.85 35.16 35.32 35.37 35.29 35.22 35.13 35.26 35.35 35.49 35.40 35.31 35.26 35.00
40.41 40.50 40.66 40.71 40.72 40.92 41.12 41.48 41.72 41.63 41.32 40.95 40.67 40.74 40.85 40.94 40.97 40.71 40.36 40.35 40.75 41.01 41.19 41.34 41.71 41.59 41.13 40.36 40.04 39.72 39.26 38.48 37.91 37.25 36.49 35.86 35.31 34.76 34.29 33.77 33.23 33.10 33.30 33.55 33.69 33.76 33.91 34.02 34.28 34.32 34.19 34.20 34.34 34.52 34.81 35.20 35.30 35.35 35.27 35.25 35.06 35.05 34.95 34.84 34.91 34.82 34.88 34.87 34.88
39.76 39.88 39.96 40.04 40.12 40.36 40.63 40.98 41.21 41.23 41.11 40.73 40.89 40.97 41.09 40.93 40.68 40.28 40.03 39.85 40.04 39.84 39.58 39.66 40.03 39.99 39.61 39.03 38.40 37.81 37.17 36.39 35.99 35.58 35.17 34.89 34.43 34.02 33.65 33.41 32.73 32.46 32.33 32.35 32.45 32.34 32.23 32.53 33.02 33.01 32.78 32.58 32.89 33.34 33.79 34.15 34.35 34.48 34.45 34.31 34.06 33.99 33.97 33.88 34.06 34.04 34.06 34.14 34.19
38.99 39.18 39.30 39.38 39.49 39.76 40.03 40.37 40.71 40.96 40.96 40.65 40.82 40.73 40.45 40.10 39.76 39.42 39.15 39.02 38.98 38.73 38.40 37.99 37.96 37.80 37.55 37.19 36.45 35.70 34.86 34.29 34.02 33.75 33.39 33.07 32.56 32.29 32.24 32.15 32.00 31.91 31.79 31.88 31.59 31.42 31.40 31.69 31.78 31.46 31.15 30.77 30.99 31.33 31.63 32.06 32.20 32.18 32.25 32.55 32.49 32.37 32.39 32.40 32.51 32.51 32.44 32.38 32.48
38.29 38.52 38.72 38.83 38.91 39.09 39.44 39.90 40.35 40.72 40.80 40.62 40.23 39.66 39.08 38.71 38.52 38.07 37.79 37.71 37.83 37.68 37.21 36.51 35.95 35.40 34.98 34.58 33.84 33.05 32.30 31.77 31.50 31.50 31.32 30.99 30.85 30.94 31.12 31.21 31.34 31.43 31.46 31.43 31.39 31.05 30.58 30.23 30.29 30.20 30.02 29.89 29.88 29.83 29.88 30.21 30.09 29.94 29.93 30.18 30.16 30.06 30.04 30.28 30.47 30.58 30.74 30.77 30.82
37.71 37.97 38.28 38.48 38.52 38.63 38.86 39.48 39.90 40.13 40.14 39.92 39.38 38.70 37.98 37.60 37.25 36.92 36.55 36.37 36.36 36.14 35.57 34.84 34.03 33.50 32.87 32.26 31.55 31.10 30.47 29.98 29.84 29.87 29.82 29.71 30.20 30.47 30.68 30.85 30.94 31.06 30.97 30.83 30.79 30.54 30.05 29.44 29.28 29.19 29.21 29.37 29.04 28.82 28.61 28.42 28.20 28.07 28.04 28.06 28.12 28.04 28.17 28.33 28.54 28.90 29.24 29.45 29.53
37.27 37.70 37.97 38.24 38.28 38.25 38.40 38.86 39.11 39.13 38.99 38.69 38.15 37.50 36.88 36.42 36.17 35.98 35.91 35.77 35.31 34.68 34.13 33.45 32.95 32.19 31.31 30.47 29.93 29.65 29.56 29.43 29.51 29.49 29.32 29.30 29.88 30.40 30.68 30.59 30.68 30.77 30.74 30.36 29.82 29.48 29.33 29.33 28.87 28.67 28.51 28.19 27.89 27.79 27.65 27.40 26.70 26.34 26.24 26.29 26.41 26.61 26.71 26.82 26.90 27.18 27.45 27.72 27.95
37.00 37.42 37.81 38.04 38.04 37.77 37.57 37.92 38.00 37.80 37.53 37.32 36.80 36.25 35.61 35.12 34.78 34.84 34.82 34.68 33.90 33.13 32.41 31.94 31.55 31.06 30.40 29.73 29.34 29.18 29.13 29.31 29.71 29.82 29.91 29.94 30.21 30.31 30.34 30.07 30.04 30.22 30.24 30.36 29.97 29.21 28.56 28.39 28.08 27.65 27.06 26.69 26.40 26.31 26.46 26.53 25.71 25.05 24.57 24.44 24.80 24.97 25.15 25.36 25.59 25.85 26.05 26.21 26.53
36.89 37.18 37.48 37.87 37.54 37.15 37.10 37.34 37.23 37.08 36.75 36.28 35.91 35.46 34.91 34.39 33.85 33.41 33.07 32.61 31.92 31.24 30.52 30.18 30.09 30.11 30.16 29.89 29.82 29.63 29.67 29.87 30.21 30.69 31.10 31.23 31.00 30.74 30.47 30.27 29.96 29.63 29.67 30.28 30.92 30.90 29.88 27.73 27.05 26.32 25.68 25.44 25.45 25.58 25.67 25.49 24.48 23.82 23.50 23.54 23.56 23.69 23.93 24.45 24.74 25.16 25.47 25.57 26.05
36.91 36.72 36.63 36.91 36.71 36.55 36.59 36.76 36.60 36.28 36.02 35.74 35.38 35.09 34.69 34.13 33.38 32.49 31.79 31.17 30.63 30.13 29.75 29.46 29.62 29.84 30.20 30.34 30.59 30.88 31.04 31.01 30.95 31.24 31.63 31.98 31.74 31.27 30.67 30.13 29.47 29.43 29.78 30.78 33.46 35.23 34.80 30.67 29.03 27.17 25.68 24.90 25.00 25.18 25.12 24.59 24.14 23.76 23.50 23.37 23.15 23.16 23.37 23.68 24.13 24.67 25.16 25.40 25.78
36.12 35.69 35.52 35.74 35.82 35.78 35.74 35.79 35.67 35.50 35.30 35.18 34.91 34.71 34.28 33.73 33.06 32.10 31.15 30.44 30.04 29.90 30.06 30.18 30.25 30.38 30.59 30.95 31.51 31.97 32.21 32.23 31.94 31.67 31.63 31.81 31.52 30.96 30.32 29.52 28.87 29.20 30.55 33.39 35.11 36.32 36.39 35.03 32.98 29.85 26.65 24.53 24.26 24.00 23.75 23.33 23.43 23.27 22.94 22.42 22.35 22.31 22.54 22.89 23.39 23.89 24.51 25.32 25.26
34.64 34.31 34.39 34.97 34.98 34.95 35.08 35.06 34.99 34.87 34.66 34.42 34.14 33.81 33.55 33.27 32.69 31.81 30.74 30.20 29.95 29.95 30.26 31.10 31.54 31.79 31.96 32.35 32.58 32.54 32.38 32.73 32.72 32.21 31.55 31.17 30.81 30.06 29.21 28.53 28.03 28.86 31.17 34.92 36.10 36.48 36.18 35.52 34.23 31.84 28.57 24.55 23.36 22.88 22.65 22.18 22.37 22.29 22.11 21.63 21.56 21.45 21.54 21.79 22.34 23.14 23.97 24.62 24.70
33.54 33.50 33.63 33.98 34.02 34.26 34.36 34.29 34.18 33.96 33.80 33.61 33.24 32.87 32.59 32.39 31.86 31.20 30.65 30.24 30.00 30.00 30.52 31.90 33.16 33.73 33.88 34.03 33.01 32.26 32.15 32.98 33.36 32.99 32.21 31.47 30.49 29.33 28.12 27.23 26.50 28.32 31.96 36.35 36.73 36.53 36.01 35.23 34.10 32.61 30.10 25.76 23.01 22.15 21.94 21.38 21.21 21.07 20.88 20.84 20.74 20.71 20.91 21.29 21.95 22.53 23.03 23.34 23.86
32.82 32.74 32.89 33.06 33.39 33.57 33.59 33.41 33.33 33.12 33.02 32.75 32.50 32.35 32.21 31.88 31.47 30.97 30.49 30.36 30.27 30.74 31.78 33.61 34.76 35.27 35.20 34.48 32.94 32.10 31.97 32.53 33.04 32.66 32.03 31.51 30.06 28.60 27.25 25.89 24.95 27.60 32.34 37.24 36.72 36.31 35.68 34.74 33.37 32.24 30.81 28.75 23.76 21.14 20.11 20.08 20.08 19.99 19.97 20.13 20.05 20.05 20.34 20.78 21.31 21.75 22.04 22.40 22.98
32.32 32.03 32.04 32.40 32.65 32.79 32.72 32.41 32.50 32.50 32.53 32.56 32.23 31.78 31.37 30.97 30.80 30.58 30.44 30.31 30.86 31.81 33.27 35.08 35.46 35.29 34.66 33.89 32.76 32.28 32.37 33.16 33.31 32.66 31.64 30.36 28.92 27.48 26.26 24.98 24.68 28.30 33.13 36.83 36.41 35.94 35.09 33.92 32.55 31.83 31.11 29.98 25.06 21.32 19.10 18.66 18.57 18.69 18.96 19.27 19.27 19.35 19.53 19.97 20.29 20.68 20.98 21.48 21.73
31.71 31.41 31.30 31.48 31.79 31.77 31.72 31.58 31.81 32.04 32.04 31.92 31.32 30.80 30.51 30.12 29.96 30.09 30.30 30.78 31.58 32.38 33.35 34.57 34.66 34.35 33.82 33.38 32.76 32.63 32.76 33.14 32.75 31.92 30.77 29.36 28.14 26.68 25.09 23.53 23.52 26.74 31.65 36.29 36.05 35.43 34.57 33.33 32.00 31.36 30.92 30.12 25.69 21.59 18.86 18.30 17.89 17.98 18.22 18.66 18.73 18.82 19.02 19.46 19.64 19.82 19.98 20.19 20.51
31.04 30.84 30.70 30.66 30.85 30.96 30.95 31.05 31.19 31.21 30.89 30.51 30.13 29.97 29.67 29.41 29.30 29.53 30.01 30.64 31.68 32.45 32.88 33.09 32.69 32.33 32.02 31.95 31.97 31.93 31.92 31.67 31.20 30.81 30.28 29.16 27.64 25.77 24.03 22.65 22.38 24.78 29.27 35.40 35.61 34.98 34.02 32.86 31.92 31.32 30.97 30.69 26.69 22.15 18.62 17.57 17.16 17.16 17.60 18.23 18.73 18.82 19.02 19.63 19.58 19.53 19.49 19.58 19.85
30.38 30.29 30.09 29.82 30.11 30.34 30.37 30.38 30.36 30.14 29.86 29.50 29.37 29.37 29.30 29.32 29.29 29.66 30.11 30.40 30.98 31.53 32.02 32.13 31.75 31.58 31.51 31.44 31.30 31.21 30.94 30.59 30.14 29.60 28.63 27.24 26.08 24.82 23.74 22.80 22.12 24.90 29.52 34.50 34.87 34.53 33.82 32.91 32.01 31.43 31.32 31.92 27.33 22.09 17.91 16.59 16.53 16.79 17.15 17.45 18.25 18.78 19.02 18.87 19.06 19.34 19.34 19.48 19.79
29.74 29.84 29.80 29.50 29.70 29.76 29.68 29.32 29.15 28.92 28.79 28.61 28.79 29.04 29.23 29.36 29.67 29.97 30.25 30.41 30.48 30.75 30.92 31.06 31.16 31.31 31.45 31.33 30.85 30.28 29.57 28.82 28.41 27.78 26.97 25.71 24.57 24.06 23.50 22.59 21.41 25.20 30.55 33.93 34.21 34.09 33.63 32.96 32.33 31.83 31.56 31.50 26.26 21.32 17.86 17.07 17.06 17.29 17.53 17.68 18.04 18.30 18.72 18.85 19.10 19.31 19.46 19.49 19.67
29.29 29.39 29.54 29.18 29.33 29.26 28.89 28.33 28.12 28.01 28.04 28.12 28.55 28.89 29.18 29.28 29.64 30.00 30.12 30.04 29.98 30.00 30.08 30.03 30.33 30.61 30.81 30.62 29.77 29.02 28.29 27.83 27.58 26.91 25.90 24.51 23.64 23.32 23.32 22.74 22.00 25.74 30.61 33.25 33.87 33.97 33.61 33.11 32.55 32.09 31.08 28.98 23.71 20.13 18.33 18.25 17.95 17.68 17.68 17.78 18.02 18.34 18.64 18.74 19.06 19.23 19.28 19.30 19.53
28.94 28.95 28.83 28.68 28.77 28.53 28.20 27.69 27.70 27.81 27.90 27.94 28.41 28.75 29.04 29.39 29.65 29.89 29.92 29.70 29.34 29.08 28.91 28.92 29.19 29.43 29.39 28.73 27.64 27.01 26.70 26.76 26.62 26.02 25.05 23.84 23.03 22.56 22.35 22.26 22.26 25.70 29.90 32.61 33.48 33.74 33.58 33.28 32.82 32.33 30.63 26.44 21.56 19.39 18.83 18.65 17.74 17.15 16.89 16.87 17.29 17.59 17.92 18.39 18.85 19.05 18.89 18.79 19.18
28.30 28.42 28.47 28.47 28.24 28.03 27.70 27.48 27.43 27.51 27.80 28.08 28.28 28.49 28.80 29.19 29.44 29.62 29.58 29.31 28.91 28.49 28.25 28.41 28.57 28.52 27.91 27.03 26.39 26.26 26.27 26.33 26.09 25.51 24.71 23.70 22.53 21.91 21.73 22.18 22.59 25.02 28.44 32.14 33.41 33.97 34.00 33.82 33.42 32.37 29.30 22.72 19.07 17.97 18.09 17.83 16.91 16.39 16.22 16.41 16.53 16.74 16.92 17.26 17.66 17.91 18.07 18.00 19.64
27.98 28.15 28.33 28.15 27.80 27.59 27.31 27.27 27.13 27.28 27.50 27.86 28.21 28.50 28.64 28.70 28.80 28.86 28.92 28.68 28.44 28.18 28.18 28.29 28.10 27.66 26.94 26.22 25.73 25.59 25.62 25.54 25.01 24.69 24.46 23.96 22.79 21.97 22.00 22.97 23.94 25.52 28.08 32.13 33.36 33.96 34.01 34.06 34.03 32.30 28.03 19.87 18.09 17.42 17.24 16.88 16.45 16.42 16.40 16.52 16.58 16.68 16.57 16.17 16.19 16.52 16.87 17.38 21.74
27.89 27.78 27.72 27.69 27.44 27.34 27.21 27.13 27.11 27.24 27.46 27.64 27.99 28.15 28.26 28.20 28.18 28.54 28.72 28.35 27.90 27.68 27.46 27.24 26.96 26.52 26.05 25.50 25.15 25.23 25.42 25.24 24.49 24.23 24.17 24.29 23.88 24.09 24.35 24.47 24.91 26.11 28.39 31.79 32.77 33.26 33.33 33.51 33.27 31.07 26.83 20.32 18.21 17.24 17.06 16.95 16.89 16.84 16.72 16.55 16.26 16.27 16.19 15.85 15.73 15.90 16.22 16.31 22.87
27.84 27.38 27.20 27.40 27.47 27.29 27.15 26.94 26.99 27.24 27.54 27.64 27.61 27.68 27.72 27.65 27.65 28.24 28.54 27.79 27.32 26.96 26.60 26.21 25.96 25.74 25.61 25.47 25.31 25.23 25.18 25.05 24.63 24.58 24.52 24.63 25.50 27.17 27.51 25.05 24.96 25.79 27.73 30.93 32.14 32.62 32.55 32.65 31.80 29.46 25.74 20.55 18.25 17.59 17.68 17.68 17.27 16.89 16.40 15.93 15.49 15.79 16.09 16.06 15.91 15.83 15.89 15.62 19.81
27.63 27.42 27.20 27.35 27.44 27.20 26.99 26.64 26.92 27.20 27.48 27.45 27.33 27.34 27.18 27.01 27.00 27.18 27.32 26.82 26.49 26.13 25.93 25.65 25.57 25.52 25.60 26.01 25.92 25.49 25.00 24.73 24.79 24.71 24.63 24.66 25.89 27.34 27.43 24.89 24.60 24.79 26.03 29.16 31.23 31.89 31.75 31.64 30.81 29.41 26.69 21.91 19.07 18.36 18.62 18.39 17.65 16.89 16.02 15.46 15.20 15.52 16.03 16.19 16.16 16.01 15.84 15.59 16.11
MSLP
1020.10 1020.10 1020.06 1020.10 1020.06 1020.02 1019.94 1019.90 1019.82 1019.74 1019.66 1019.58 1019.50 1019.42 1019.30 1019.14 1018.94 1018.78 1018.66 1018.54 1018.42 1018.30 1018.18 1018.02 1017.90 1017.78 1017.74 1017.70 1017.62 1017.46 1017.30 1017.22 1017.10 1017.02 1016.90 1016.82 1016.70 1016.54 1016.38 1016.30 1016.22 1016.18 1016.18 1016.18 1016.14 1016.22 1016.34 1016.46 1016.54 1016.70 1016.86 1016.90 1016.90 1016.86 1016.74 1016.62 1016.46 1016.18 1015.90 1015.70 1015.62 1015.66 1015.74 1015.66 1015.46 1015.30 1015.22 1015.18 1015.18
1020.30 1020.22 1020.18 1020.14 1020.10 1020.02 1019.94 1019.90 1019.82 1019.74 1019.66 1019.58 1019.46 1019.38 1019.26 1019.10 1018.98 1018.86 1018.70 1018.58 1018.50 1018.46 1018.34 1018.18 1018.06 1018.02 1018.02 1017.90 1017.78 1017.66 1017.54 1017.46 1017.30 1017.18 1017.10 1017.02 1016.90 1016.78 1016.66 1016.58 1016.46 1016.46 1016.46 1016.42 1016.46 1016.58 1016.74 1016.78 1016.78 1016.90 1017.02 1017.14 1017.18 1017.10 1016.94 1016.74 1016.58 1016.34 1016.06 1015.86 1015.74 1015.70 1015.70 1015.58 1015.42 1015.22 1015.06 1014.94 1014.90
1020.38 1020.30 1020.22 1020.22 1020.22 1020.18 1020.10 1020.02 1019.94 1019.86 1019.74 1019.62 1019.46 1019.34 1019.22 1019.10 1019.02 1018.90 1018.86 1018.74 1018.66 1018.58 1018.54 1018.46 1018.30 1018.30 1018.26 1018.14 1018.02 1017.90 1017.74 1017.62 1017.50 1017.42 1017.34 1017.30 1017.26 1017.18 1017.02 1016.86 1016.70 1016.66 1016.74 1016.78 1016.86 1016.94 1017.02 1017.02 1017.02 1017.06 1017.14 1017.22 1017.30 1017.30 1017.18 1017.02 1016.82 1016.58 1016.22 1015.86 1015.62 1015.54 1015.46 1015.38 1015.22 1015.06 1014.90 1014.74 1014.66
1020.50 1020.46 1020.46 1020.46 1020.42 1020.38 1020.30 1020.22 1020.10 1020.02 1019.86 1019.70 1019.50 1019.34 1019.26 1019.18 1019.10 1019.02 1018.98 1018.90 1018.82 1018.82 1018.78 1018.74 1018.66 1018.58 1018.50 1018.38 1018.18 1018.06 1017.94 1017.86 1017.74 1017.66 1017.62 1017.62 1017.58 1017.46 1017.26 1017.10 1017.02 1017.06 1017.14 1017.14 1017.18 1017.22 1017.18 1017.14 1017.10 1017.06 1017.10 1017.18 1017.22 1017.22 1017.14 1016.98 1016.78 1016.54 1016.18 1015.74 1015.46 1015.30 1015.18 1015.14 1015.06 1014.98 1014.90 1014.82 1014.74
1020.66 1020.66 1020.62 1020.58 1020.54 1020.46 1020.38 1020.30 1020.18 1020.06 1019.90 1019.74 1019.62 1019.46 1019.34 1019.26 1019.22 1019.18 1019.10 1019.02 1019.06 1019.14 1019.10 1019.02 1018.94 1018.86 1018.74 1018.58 1018.42 1018.26 1018.14 1018.02 1017.98 1017.90 1017.90 1017.82 1017.78 1017.70 1017.54 1017.46 1017.38 1017.34 1017.34 1017.38 1017.46 1017.42 1017.34 1017.22 1017.14 1017.06 1017.02 1016.98 1016.98 1016.98 1016.94 1016.82 1016.66 1016.42 1016.06 1015.70 1015.34 1015.14 1015.02 1014.94 1014.90 1014.90 1014.90 1014.94 1014.90
1020.86 1020.78 1020.70 1020.62 1020.58 1020.50 1020.42 1020.34 1020.26 1020.14 1019.98 1019.82 1019.74 1019.62 1019.46 1019.46 1019.42 1019.42 1019.38 1019.34 1019.34 1019.34 1019.30 1019.18 1019.10 1019.02 1018.90 1018.70 1018.58 1018.46 1018.34 1018.30 1018.22 1018.18 1018.06 1018.02 1017.98 1017.90 1017.86 1017.78 1017.70 1017.58 1017.50 1017.54 1017.58 1017.54 1017.42 1017.30 1017.18 1017.02 1016.90 1016.86 1016.82 1016.86 1016.90 1016.82 1016.66 1016.46 1016.10 1015.74 1015.38 1015.18 1015.02 1014.90 1014.82 1014.82 1014.90 1014.90 1014.86
1020.98 1020.90 1020.82 1020.74 1020.66 1020.58 1020.50 1020.42 1020.30 1020.18 1020.02 1019.90 1019.86 1019.74 1019.70 1019.74 1019.70 1019.66 1019.62 1019.50 1019.50 1019.46 1019.46 1019.38 1019.30 1019.18 1019.06 1018.90 1018.78 1018.66 1018.58 1018.58 1018.50 1018.42 1018.30 1018.22 1018.18 1018.10 1018.06 1018.06 1017.98 1017.86 1017.74 1017.70 1017.66 1017.58 1017.46 1017.34 1017.26 1017.18 1017.10 1017.02 1016.94 1016.94 1016.94 1016.90 1016.78 1016.58 1016.34 1016.06 1015.82 1015.62 1015.46 1015.26 1015.06 1014.98 1014.90 1014.86 1014.78
1021.02 1020.98 1020.90 1020.82 1020.74 1020.66 1020.58 1020.46 1020.38 1020.26 1020.18 1020.10 1020.02 1019.94 1019.90 1019.98 1019.94 1019.90 1019.82 1019.74 1019.78 1019.82 1019.74 1019.66 1019.58 1019.46 1019.30 1019.18 1019.02 1018.94 1018.86 1018.82 1018.74 1018.66 1018.58 1018.46 1018.38 1018.34 1018.30 1018.30 1018.30 1018.22 1018.10 1017.90 1017.74 1017.62 1017.50 1017.38 1017.46 1017.50 1017.50 1017.42 1017.34 1017.30 1017.26 1017.10 1016.94 1016.82 1016.74 1016.62 1016.50 1016.34 1016.14 1015.90 1015.66 1015.46 1015.22 1015.06 1014.94
1021.18 1021.10 1021.02 1020.94 1020.90 1020.78 1020.70 1020.62 1020.54 1020.46 1020.38 1020.30 1020.30 1020.22 1020.22 1020.30 1020.26 1020.22 1020.18 1020.22 1020.26 1020.18 1020.06 1019.98 1019.86 1019.70 1019.54 1019.38 1019.30 1019.22 1019.18 1019.06 1019.02 1018.98 1018.86 1018.74 1018.62 1018.58 1018.54 1018.58 1018.58 1018.54 1018.38 1018.18 1017.94 1017.74 1017.62 1017.58 1017.74 1017.86 1017.90 1017.90 1017.86 1017.78 1017.66 1017.46 1017.26 1017.10 1017.02 1017.02 1017.02 1017.02 1016.90 1016.66 1016.34 1016.02 1015.74 1015.50 1015.46
1021.34 1021.26 1021.18 1021.06 1021.02 1020.94 1020.86 1020.74 1020.70 1020.66 1020.66 1020.66 1020.58 1020.58 1020.62 1020.70 1020.70 1020.74 1020.78 1020.78 1020.66 1020.50 1020.34 1020.26 1020.10 1019.94 1019.78 1019.62 1019.54 1019.46 1019.42 1019.38 1019.30 1019.26 1019.18 1019.02 1018.94 1018.90 1018.78 1018.74 1018.70 1018.66 1018.54 1018.38 1018.22 1018.02 1017.90 1017.90 1018.02 1018.14 1018.18 1018.18 1018.18 1018.10 1017.98 1017.86 1017.66 1017.50 1017.42 1017.38 1017.38 1017.30 1017.18 1017.06 1016.82 1016.58 1016.34 1016.10 1015.98
1021.58 1021.46 1021.42 1021.34 1021.26 1021.18 1021.06 1021.02 1020.94 1020.90 1020.98 1021.02 1020.98 1021.02 1021.06 1021.14 1021.18 1021.22 1021.18 1021.14 1020.94 1020.78 1020.66 1020.54 1020.38 1020.18 1020.02 1019.90 1019.78 1019.74 1019.70 1019.66 1019.62 1019.54 1019.46 1019.30 1019.22 1019.14 1019.06 1018.98 1018.90 1018.82 1018.70 1018.58 1018.46 1018.30 1018.18 1018.18 1018.26 1018.30 1018.34 1018.34 1018.30 1018.26 1018.18 1018.14 1018.02 1017.90 1017.74 1017.70 1017.62 1017.46 1017.34 1017.26 1017.14 1016.98 1016.82 1016.58 1016.34
1021.74 1021.66 1021.62 1021.58 1021.46 1021.38 1021.30 1021.26 1021.22 1021.26 1021.30 1021.34 1021.38 1021.46 1021.50 1021.58 1021.62 1021.54 1021.46 1021.30 1021.18 1021.06 1020.94 1020.78 1020.62 1020.46 1020.30 1020.14 1020.02 1019.98 1019.90 1019.90 1019.82 1019.74 1019.62 1019.58 1019.46 1019.34 1019.22 1019.18 1019.06 1019.02 1018.94 1018.82 1018.70 1018.58 1018.46 1018.42 1018.46 1018.46 1018.50 1018.50 1018.46 1018.46 1018.38 1018.34 1018.30 1018.18 1018.02 1017.94 1017.86 1017.74 1017.62 1017.50 1017.38 1017.26 1017.14 1016.94 1016.74
1021.94 1021.90 1021.86 1021.82 1021.74 1021.66 1021.62 1021.58 1021.54 1021.62 1021.62 1021.66 1021.70 1021.74 1021.82 1021.86 1021.82 1021.74 1021.62 1021.46 1021.38 1021.26 1021.18 1021.02 1020.90 1020.74 1020.58 1020.46 1020.30 1020.22 1020.14 1020.06 1020.02 1019.90 1019.82 1019.74 1019.62 1019.50 1019.42 1019.30 1019.26 1019.22 1019.18 1019.06 1018.94 1018.82 1018.70 1018.62 1018.58 1018.58 1018.62 1018.66 1018.62 1018.58 1018.58 1018.54 1018.50 1018.46 1018.30 1018.22 1018.10 1017.98 1017.86 1017.74 1017.62 1017.46 1017.30 1017.14 1016.94
1022.18 1022.14 1022.14 1022.10 1022.02 1021.90 1021.90 1021.90 1021.86 1021.90 1021.90 1021.94 1021.94 1021.98 1021.98 1021.94 1021.86 1021.74 1021.66 1021.58 1021.50 1021.42 1021.30 1021.18 1021.06 1020.94 1020.86 1020.74 1020.58 1020.46 1020.34 1020.26 1020.14 1020.02 1019.90 1019.82 1019.74 1019.62 1019.58 1019.50 1019.46 1019.42 1019.34 1019.30 1019.18 1019.02 1018.94 1018.90 1018.82 1018.74 1018.74 1018.74 1018.74 1018.74 1018.70 1018.62 1018.58 1018.58 1018.50 1018.42 1018.30 1018.18 1018.06 1017.94 1017.78 1017.62 1017.46 1017.22 1017.02
1022.38 1022.38 1022.34 1022.30 1022.26 1022.18 1022.18 1022.14 1022.10 1022.14 1022.18 1022.18 1022.14 1022.14 1022.06 1021.98 1021.90 1021.78 1021.70 1021.62 1021.58 1021.46 1021.34 1021.22 1021.14 1021.02 1020.90 1020.78 1020.62 1020.50 1020.42 1020.30 1020.18 1020.10 1020.02 1019.90 1019.82 1019.74 1019.70 1019.66 1019.62 1019.54 1019.46 1019.38 1019.30 1019.22 1019.18 1019.10 1019.02 1018.94 1018.90 1018.90 1018.90 1018.86 1018.78 1018.70 1018.66 1018.58 1018.58 1018.50 1018.46 1018.34 1018.22 1018.02 1017.90 1017.74 1017.58 1017.34 1017.14
1022.62 1022.62 1022.58 1022.54 1022.46 1022.42 1022.38 1022.30 1022.30 1022.30 1022.34 1022.34 1022.30 1022.26 1022.14 1022.02 1021.94 1021.86 1021.74 1021.70 1021.62 1021.50 1021.38 1021.22 1021.10 1020.94 1020.82 1020.74 1020.62 1020.54 1020.46 1020.34 1020.26 1020.18 1020.14 1020.02 1019.98 1019.90 1019.90 1019.78 1019.70 1019.62 1019.54 1019.46 1019.42 1019.38 1019.30 1019.26 1019.18 1019.10 1019.06 1019.10 1019.06 1019.02 1018.98 1018.90 1018.78 1018.74 1018.62 1018.58 1018.50 1018.38 1018.26 1018.14 1018.02 1017.86 1017.70 1017.46 1017.30
1022.90 1022.86 1022.78 1022.74 1022.58 1022.58 1022.54 1022.50 1022.50 1022.50 1022.50 1022.50 1022.46 1022.38 1022.30 1022.18 1022.06 1022.02 1021.90 1021.86 1021.70 1021.54 1021.42 1021.30 1021.14 1020.98 1020.90 1020.78 1020.70 1020.62 1020.54 1020.46 1020.38 1020.30 1020.26 1020.22 1020.14 1020.06 1020.02 1019.90 1019.82 1019.74 1019.62 1019.58 1019.54 1019.46 1019.42 1019.34 1019.30 1019.26 1019.26 1019.30 1019.30 1019.26 1019.18 1019.10 1019.02 1018.90 1018.78 1018.66 1018.58 1018.46 1018.34 1018.26 1018.10 1017.94 1017.74 1017.58 1017.38
1023.10 1023.02 1022.98 1022.86 1022.78 1022.74 1022.66 1022.66 1022.62 1022.62 1022.62 1022.62 1022.58 1022.54 1022.46 1022.34 1022.26 1022.18 1022.06 1021.98 1021.82 1021.66 1021.54 1021.38 1021.26 1021.18 1021.02 1020.98 1020.90 1020.82 1020.74 1020.70 1020.62 1020.54 1020.46 1020.38 1020.30 1020.22 1020.14 1020.02 1019.94 1019.86 1019.74 1019.62 1019.58 1019.54 1019.46 1019.42 1019.34 1019.34 1019.42 1019.46 1019.46 1019.46 1019.38 1019.30 1019.18 1019.06 1018.94 1018.82 1018.70 1018.58 1018.46 1018.34 1018.18 1018.02 1017.82 1017.62 1017.42
1023.30 1023.22 1023.14 1023.02 1022.94 1022.90 1022.86 1022.78 1022.78 1022.78 1022.74 1022.74 1022.74 1022.66 1022.58 1022.54 1022.38 1022.26 1022.18 1022.02 1021.90 1021.78 1021.70 1021.58 1021.46 1021.34 1021.26 1021.18 1021.14 1021.06 1020.98 1020.90 1020.82 1020.74 1020.58 1020.50 1020.46 1020.38 1020.26 1020.18 1020.02 1019.94 1019.82 1019.70 1019.62 1019.54 1019.46 1019.46 1019.46 1019.50 1019.58 1019.62 1019.62 1019.54 1019.46 1019.42 1019.30 1019.18 1019.06 1018.94 1018.82 1018.66 1018.54 1018.42 1018.22 1018.06 1017.86 1017.62 1017.38
1023.42 1023.34 1023.30 1023.18 1023.10 1023.06 1023.02 1022.94 1022.90 1022.86 1022.86 1022.82 1022.82 1022.74 1022.70 1022.62 1022.50 1022.38 1022.26 1022.18 1022.02 1021.94 1021.86 1021.74 1021.66 1021.54 1021.46 1021.34 1021.30 1021.18 1021.10 1021.02 1020.94 1020.86 1020.74 1020.66 1020.58 1020.46 1020.34 1020.22 1020.10 1019.98 1019.86 1019.70 1019.62 1019.50 1019.46 1019.46 1019.50 1019.62 1019.62 1019.66 1019.66 1019.62 1019.58 1019.46 1019.38 1019.26 1019.14 1019.02 1018.86 1018.70 1018.54 1018.38 1018.18 1017.98 1017.74 1017.54 1017.30
1023.54 1023.46 1023.42 1023.30 1023.26 1023.18 1023.10 1023.02 1022.98 1022.94 1022.90 1022.90 1022.90 1022.86 1022.78 1022.74 1022.58 1022.46 1022.34 1022.26 1022.14 1022.02 1021.98 1021.90 1021.78 1021.70 1021.58 1021.50 1021.46 1021.30 1021.22 1021.18 1021.02 1020.94 1020.86 1020.74 1020.62 1020.50 1020.38 1020.30 1020.14 1019.98 1019.86 1019.70 1019.62 1019.50 1019.46 1019.50 1019.58 1019.62 1019.66 1019.66 1019.66 1019.62 1019.58 1019.46 1019.34 1019.22 1019.06 1018.90 1018.74 1018.58 1018.42 1018.26 1018.06 1017.86 1017.66 1017.46 1017.26
1023.66 1023.62 1023.50 1023.46 1023.38 1023.30 1023.18 1023.14 1023.10 1023.02 1023.02 1023.02 1022.98 1022.94 1022.90 1022.78 1022.66 1022.54 1022.42 1022.30 1022.18 1022.10 1022.02 1021.98 1021.90 1021.74 1021.70 1021.62 1021.54 1021.42 1021.30 1021.18 1021.02 1020.94 1020.90 1020.74 1020.62 1020.50 1020.38 1020.30 1020.14 1019.98 1019.82 1019.70 1019.62 1019.58 1019.54 1019.58 1019.62 1019.62 1019.62 1019.62 1019.58 1019.54 1019.46 1019.38 1019.30 1019.14 1018.98 1018.82 1018.66 1018.46 1018.30 1018.14 1017.98 1017.82 1017.62 1017.46 1017.30
1023.74 1023.66 1023.62 1023.54 1023.46 1023.38 1023.30 1023.26 1023.22 1023.18 1023.18 1023.14 1023.06 1023.02 1022.94 1022.82 1022.74 1022.58 1022.46 1022.34 1022.22 1022.18 1022.06 1022.02 1021.94 1021.82 1021.74 1021.62 1021.54 1021.46 1021.34 1021.22 1021.06 1020.90 1020.82 1020.70 1020.58 1020.42 1020.30 1020.18 1020.06 1019.90 1019.78 1019.70 1019.62 1019.62 1019.62 1019.62 1019.62 1019.62 1019.62 1019.62 1019.54 1019.46 1019.42 1019.30 1019.18 1019.06 1018.94 1018.74 1018.62 1018.46 1018.30 1018.18 1018.02 1017.86 1017.74 1017.62 1017.46
1023.82 1023.78 1023.74 1023.62 1023.58 1023.50 1023.46 1023.38 1023.34 1023.34 1023.30 1023.26 1023.18 1023.10 1022.98 1022.86 1022.74 1022.66 1022.54 1022.42 1022.30 1022.22 1022.18 1022.06 1022.02 1021.90 1021.74 1021.62 1021.50 1021.46 1021.34 1021.26 1021.14 1020.94 1020.74 1020.58 1020.46 1020.30 1020.18 1020.10 1019.98 1019.86 1019.74 1019.66 1019.58 1019.54 1019.62 1019.66 1019.66 1019.62 1019.62 1019.58 1019.50 1019.46 1019.34 1019.22 1019.14 1019.02 1018.94 1018.82 1018.66 1018.50 1018.38 1018.26 1018.14 1018.02 1017.90 1017.78 1017.70
1023.90 1023.90 1023.82 1023.74 1023.70 1023.62 1023.54 1023.54 1023.54 1023.46 1023.42 1023.34 1023.22 1023.14 1023.02 1022.90 1022.78 1022.70 1022.58 1022.46 1022.34 1022.26 1022.18 1022.10 1022.02 1021.90 1021.78 1021.62 1021.50 1021.38 1021.30 1021.22 1021.18 1021.02 1020.82 1020.58 1020.38 1020.26 1020.18 1020.06 1019.98 1019.90 1019.78 1019.62 1019.50 1019.42 1019.46 1019.62 1019.58 1019.58 1019.62 1019.54 1019.46 1019.34 1019.26 1019.18 1019.14 1019.02 1018.94 1018.90 1018.78 1018.66 1018.54 1018.38 1018.26 1018.18 1018.10 1018.02 1017.94
1024.02 1023.94 1023.90 1023.90 1023.78 1023.74 1023.66 1023.66 1023.62 1023.58 1023.46 1023.38 1023.30 1023.18 1023.06 1022.94 1022.82 1022.74 1022.62 1022.54 1022.42 1022.30 1022.22 1022.14 1022.02 1021.90 1021.82 1021.66 1021.50 1021.34 1021.26 1021.18 1021.10 1020.98 1020.86 1020.66 1020.46 1020.30 1020.22 1020.14 1020.02 1019.90 1019.78 1019.62 1019.46 1019.42 1019.42 1019.46 1019.46 1019.46 1019.50 1019.46 1019.46 1019.38 1019.30 1019.22 1019.18 1019.10 1019.02 1018.98 1018.90 1018.86 1018.74 1018.62 1018.46 1018.34 1018.30 1018.18 1018.14
1024.06 1024.02 1024.02 1023.94 1023.90 1023.78 1023.74 1023.74 1023.66 1023.62 1023.50 1023.42 1023.30 1023.22 1023.14 1022.98 1022.90 1022.78 1022.70 1022.58 1022.46 1022.30 1022.18 1022.10 1022.02 1021.90 1021.74 1021.62 1021.50 1021.38 1021.26 1021.10 1020.98 1020.86 1020.74 1020.58 1020.46 1020.34 1020.30 1020.18 1020.02 1019.94 1019.82 1019.62 1019.50 1019.46 1019.46 1019.38 1019.34 1019.38 1019.42 1019.46 1019.42 1019.38 1019.34 1019.30 1019.26 1019.18 1019.10 1019.06 1019.02 1018.94 1018.90 1018.86 1018.70 1018.58 1018.46 1018.34 1018.26
1024.18 1024.14 1024.02 1023.98 1023.90 1023.90 1023.82 1023.74 1023.66 1023.62 1023.54 1023.46 1023.34 1023.26 1023.14 1023.02 1022.90 1022.78 1022.70 1022.58 1022.46 1022.30 1022.18 1022.02 1021.90 1021.74 1021.66 1021.58 1021.46 1021.34 1021.22 1021.02 1020.90 1020.74 1020.62 1020.50 1020.46 1020.38 1020.30 1020.22 1020.06 1019.90 1019.78 1019.62 1019.50 1019.46 1019.42 1019.34 1019.34 1019.34 1019.38 1019.42 1019.38 1019.38 1019.38 1019.38 1019.34 1019.30 1019.18 1019.18 1019.14 1019.06 1018.98 1018.90 1018.82 1018.74 1018.62 1018.50 1018.34
1024.18 1024.14 1024.06 1024.02 1023.98 1023.90 1023.82 1023.74 1023.74 1023.62 1023.54 1023.46 1023.34 1023.26 1023.14 1023.02 1022.90 1022.82 1022.70 1022.54 1022.42 1022.30 1022.18 1021.98 1021.78 1021.62 1021.58 1021.50 1021.42 1021.30 1021.18 1020.98 1020.86 1020.74 1020.62 1020.54 1020.46 1020.38 1020.30 1020.18 1020.06 1019.90 1019.74 1019.62 1019.50 1019.46 1019.42 1019.34 1019.34 1019.34 1019.34 1019.38 1019.46 1019.46 1019.46 1019.46 1019.42 1019.34 1019.30 1019.26 1019.22 1019.18 1019.10 1019.02 1018.94 1018.86 1018.74 1018.62 1018.50
1024.22 1024.18 1024.10 1024.02 1024.02 1023.94 1023.86 1023.78 1023.74 1023.62 1023.54 1023.42 1023.30 1023.22 1023.14 1023.02 1022.90 1022.82 1022.70 1022.54 1022.42 1022.26 1022.10 1021.90 1021.74 1021.62 1021.54 1021.46 1021.30 1021.22 1021.10 1020.94 1020.82 1020.70 1020.66 1020.58 1020.54 1020.46 1020.34 1020.18 1020.06 1019.90 1019.70 1019.58 1019.50 1019.46 1019.38 1019.34 1019.34 1019.34 1019.34 1019.34 1019.46 1019.50 1019.50 1019.50 1019.50 1019.46 1019.34 1019.30 1019.26 1019.22 1019.18 1019.10 1019.02 1018.94 1018.86 1018.74 1018.58
1024.22 1024.18 1024.14 1024.06 1024.02 1023.98 1023.90 1023.78 1023.70 1023.62 1023.50 1023.42 1023.30 1023.26 1023.18 1023.06 1022.98 1022.82 1022.70 1022.54 1022.34 1022.18 1021.98 1021.82 1021.74 1021.62 1021.54 1021.38 1021.30 1021.18 1021.10 1020.94 1020.82 1020.74 1020.70 1020.66 1020.58 1020.50 1020.38 1020.26 1020.10 1019.90 1019.74 1019.58 1019.50 1019.46 1019.42 1019.34 1019.30 1019.30 1019.30 1019.30 1019.46 1019.50 1019.54 1019.54 1019.54 1019.50 1019.46 1019.34 1019.30 1019.26 1019.22 1019.18 1019.14 1019.06 1018.98 1018.86 1018.74
1024.22 1024.18 1024.14 1024.10 1024.06 1023.98 1023.90 1023.74 1023.66 1023.58 1023.46 1023.42 1023.34 1023.26 1023.18 1023.06 1022.94 1022.78 1022.58 1022.46 1022.30 1022.10 1021.90 1021.78 1021.70 1021.62 1021.46 1021.34 1021.22 1021.14 1021.02 1020.98 1020.90 1020.78 1020.74 1020.66 1020.62 1020.58 1020.46 1020.30 1020.18 1020.02 1019.82 1019.62 1019.54 1019.46 1019.46 1019.38 1019.30 1019.26 1019.26 1019.26 1019.38 1019.50 1019.62 1019.62 1019.62 1019.62 1019.50 1019.42 1019.38 1019.30 1019.30 1019.22 1019.18 1019.14 1019.06 1018.98 1018.90
1024.22 1024.18 1024.14 1024.10 1024.02 1023.94 1023.86 1023.74 1023.62 1023.58 1023.46 1023.42 1023.34 1023.26 1023.14 1023.02 1022.90 1022.74 1022.54 1022.34 1022.18 1022.06 1021.94 1021.82 1021.70 1021.58 1021.46 1021.30 1021.18 1021.10 1021.02 1020.98 1020.86 1020.74 1020.70 1020.66 1020.62 1020.58 1020.46 1020.34 1020.18 1020.02 1019.90 1019.70 1019.62 1019.58 1019.46 1019.38 1019.30 1019.30 1019.26 1019.22 1019.38 1019.54 1019.66 1019.74 1019.74 1019.66 1019.62 1019.54 1019.46 1019.46 1019.38 1019.34 1019.30 1019.26 1019.14 1019.02 1018.94
1024.22 1024.18 1024.14 1024.06 1024.02 1023.90 1023.82 1023.70 1023.62 1023.54 1023.46 1023.38 1023.30 1023.22 1023.10 1022.98 1022.86 1022.70 1022.50 1022.30 1022.18 1022.02 1021.90 1021.78 1021.62 1021.46 1021.34 1021.22 1021.18 1021.10 1021.02 1020.94 1020.78 1020.70 1020.62 1020.58 1020.58 1020.50 1020.42 1020.30 1020.18 1020.02 1019.86 1019.74 1019.70 1019.62 1019.50 1019.46 1019.34 1019.30 1019.30 1019.30 1019.50 1019.66 1019.74 1019.82 1019.78 1019.74 1019.74 1019.70 1019.62 1019.58 1019.50 1019.46 1019.34 1019.30 1019.18 1019.06 1018.94
1024.18 1024.18 1024.14 1024.06 1023.98 1023.90 1023.78 1023.70 1023.62 1023.54 1023.46 1023.42 1023.30 1023.18 1023.02 1022.94 1022.78 1022.62 1022.46 1022.30 1022.18 1022.02 1021.86 1021.70 1021.54 1021.38 1021.22 1021.14 1021.10 1021.06 1020.98 1020.90 1020.82 1020.70 1020.62 1020.58 1020.58 1020.50 1020.42 1020.30 1020.18 1020.02 1019.90 1019.78 1019.70 1019.62 1019.58 1019.50 1019.46 1019.38 1019.38 1019.46 1019.66 1019.78 1019.86 1019.90 1019.94 1019.90 1019.90 1019.82 1019.74 1019.66 1019.62 1019.50 1019.42 1019.30 1019.22 1019.10 1019.02
1024.14 1024.10 1024.06 1024.02 1023.94 1023.86 1023.78 1023.70 1023.62 1023.58 1023.46 1023.38 1023.26 1023.14 1023.02 1022.90 1022.74 1022.58 1022.42 1022.26 1022.14 1022.02 1021.86 1021.66 1021.50 1021.38 1021.26 1021.18 1021.10 1021.06 1021.02 1020.98 1020.90 1020.78 1020.70 1020.70 1020.62 1020.58 1020.46 1020.38 1020.30 1020.14 1019.98 1019.90 1019.78 1019.70 1019.62 1019.54 1019.46 1019.46 1019.46 1019.62 1019.78 1019.90 1019.98 1020.02 1020.06 1020.02 1020.02 1019.94 1019.86 1019.74 1019.66 1019.58 1019.46 1019.34 1019.22 1019.14 1019.02
1024.06 1024.02 1024.02 1024.02 1023.94 1023.86 1023.78 1023.74 1023.62 1023.54 1023.46 1023.34 1023.22 1023.10 1022.94 1022.86 1022.66 1022.50 1022.34 1022.18 1022.14 1022.02 1021.86 1021.70 1021.54 1021.42 1021.34 1021.30 1021.22 1021.14 1021.02 1020.98 1020.94 1020.90 1020.78 1020.74 1020.66 1020.62 1020.58 1020.46 1020.38 1020.26 1020.06 1019.90 1019.78 1019.70 1019.62 1019.50 1019.46 1019.46 1019.62 1019.86 1019.94 1020.02 1020.10 1020.18 1020.18 1020.14 1020.06 1019.98 1019.90 1019.82 1019.74 1019.62 1019.50 1019.38 1019.26 1019.14 1018.98
1023.98 1023.94 1023.94 1023.94 1023.90 1023.86 1023.78 1023.74 1023.62 1023.54 1023.42 1023.30 1023.18 1023.02 1022.90 1022.74 1022.62 1022.46 1022.30 1022.18 1022.10 1022.02 1021.90 1021.74 1021.62 1021.50 1021.42 1021.34 1021.30 1021.18 1021.02 1020.98 1020.94 1020.90 1020.86 1020.78 1020.74 1020.70 1020.62 1020.54 1020.46 1020.30 1020.10 1019.90 1019.74 1019.66 1019.58 1019.50 1019.46 1019.46 1019.66 1019.94 1020.06 1020.10 1020.18 1020.18 1020.14 1020.10 1020.02 1019.98 1019.90 1019.78 1019.70 1019.62 1019.46 1019.38 1019.30 1019.14 1018.90
1023.90 1023.90 1023.90 1023.90 1023.90 1023.86 1023.78 1023.70 1023.62 1023.46 1023.34 1023.22 1023.10 1022.94 1022.82 1022.74 1022.58 1022.42 1022.22 1022.10 1022.02 1022.02 1021.94 1021.82 1021.70 1021.54 1021.42 1021.34 1021.30 1021.18 1021.02 1020.94 1020.90 1020.90 1020.86 1020.78 1020.70 1020.62 1020.58 1020.54 1020.46 1020.30 1020.14 1019.94 1019.78 1019.70 1019.62 1019.54 1019.50 1019.62 1019.86 1020.06 1020.10 1020.14 1020.14 1020.14 1020.10 1020.02 1020.02 1019.90 1019.86 1019.74 1019.62 1019.54 1019.46 1019.34 1019.26 1019.10 1018.82
1023.90 1023.90 1023.90 1023.90 1023.90 1023.82 1023.74 1023.66 1023.54 1023.38 1023.26 1023.14 1023.02 1022.94 1022.82 1022.66 1022.50 1022.30 1022.14 1022.02 1021.98 1021.94 1021.90 1021.82 1021.70 1021.58 1021.46 1021.38 1021.30 1021.22 1021.10 1020.94 1020.90 1020.82 1020.78 1020.74 1020.66 1020.58 1020.54 1020.58 1020.50 1020.38 1020.18 1020.02 1019.90 1019.82 1019.74 1019.66 1019.70 1019.86 1020.02 1020.14 1020.14 1020.10 1020.10 1020.10 1020.02 1020.02 1019.94 1019.90 1019.82 1019.74 1019.62 1019.50 1019.42 1019.30 1019.22 1019.06 1018.86
1023.90 1023.86 1023.86 1023.82 1023.74 1023.70 1023.62 1023.58 1023.42 1023.26 1023.18 1023.06 1022.98 1022.86 1022.74 1022.58 1022.46 1022.30 1022.14 1022.02 1021.94 1021.90 1021.86 1021.78 1021.66 1021.58 1021.46 1021.38 1021.30 1021.22 1021.18 1021.06 1020.94 1020.86 1020.78 1020.74 1020.70 1020.62 1020.58 1020.58 1020.58 1020.46 1020.30 1020.18 1020.02 1019.94 1019.90 1019.82 1019.90 1019.94 1020.02 1020.14 1020.14 1020.10 1020.06 1020.06 1020.02 1020.02 1019.94 1019.90 1019.82 1019.74 1019.62 1019.46 1019.30 1019.22 1019.14 1019.02 1018.90
Wind_Speed
8 7 6 5 5 5 5 5 5 5 5 5 5 6 6 6 6 6 5 5 5 5 5 5 5 6 8 10 11 11 11 11 11 10 10 11 11 11 11 10 10 11 11 11 10 9 8 7 6 5 4 4 5 5 5 5 6 6 7 7 6 7 7 8 8 8 8 8 7
8 8 7 7 7 6 5 6 6 6 6 6 6 6 6 5 5 5 5 5 5 5 5 5 6 8 10 11 11 11 11 11 11 11 11 12 12 12 12 11 11 11 11 11 9 7 6 7 6 5 5 5 6 6 6 6 6 7 8 8 6 6 6 7 7 7 7 6 5
8 8 8 8 8 8 7 7 7 8 8 7 6 6 6 6 5 5 5 5 5 6 6 6 7 8 10 10 10 10 10 10 10 10 11 11 11 11 11 10 11 12 11 10 9 9 8 7 6 5 5 5 6 7 7 8 8 8 8 8 6 5 5 5 5 5 5 4 4
9 9 9 9 9 9 8 8 9 9 8 7 7 7 6 6 5 5 5 5 6 6 6 7 7 8 8 8 9 9 9 9 10 10 10 9 10 10 11 11 12 12 11 10 10 9 8 7 5 4 4 5 6 7 8 8 9 9 8 8 6 5 5 4 3 3 3 2 2
9 9 9 8 9 9 9 8 9 9 8 7 7 7 7 6 5 5 5 5 6 6 6 7 7 7 7 8 9 9 9 9 9 9 8 9 9 10 11 11 11 10 9 9 9 8 7 7 5 4 4 5 5 6 8 10 10 10 9 7 5 4 4 3 2 1 1 2 3
9 9 9 9 10 9 9 9 9 9 8 7 8 9 8 6 5 5 5 5 5 6 7 7 7 7 7 8 8 9 9 9 8 8 8 9 9 9 10 10 9 8 8 8 8 8 8 7 5 4 4 4 4 5 8 10 10 10 9 7 5 3 2 3 1 1 1 1 1
10 11 11 11 11 11 10 10 10 10 9 8 10 10 9 6 6 6 6 5 6 7 7 7 7 7 7 8 8 8 8 8 8 8 8 8 9 9 10 9 9 9 8 8 8 8 8 7 6 5 5 5 5 7 9 10 10 10 10 9 5 4 4 4 2 1 0 1 1
11 11 11 12 12 12 12 12 12 11 10 10 11 11 10 7 7 7 7 7 8 7 7 7 8 8 8 8 7 7 7 8 8 8 8 8 9 9 9 9 9 9 9 8 8 8 8 7 6 6 7 7 6 8 10 13 12 12 12 11 9 8 8 7 6 5 5 4 4
11 12 12 12 13 13 13 13 13 12 12 12 12 12 11 9 9 9 9 8 7 7 7 7 8 8 8 8 8 7 7 8 8 8 8 8 9 9 9 8 9 9 8 8 8 9 9 7 7 7 7 7 7 8 10 12 13 13 12 11 11 11 11 11 11 11 11 11 12
12 12 13 13 13 14 14 14 13 13 14 14 14 13 12 11 11 10 9 7 6 7 7 7 8 8 8 8 7 7 7 8 8 8 8 9 9 8 8 6 7 8 8 8 8 8 8 7 7 7 7 6 7 9 10 11 12 11 10 8 9 11 12 12 13 13 13 12 13
12 13 13 13 14 14 14 14 13 13 14 14 15 14 14 13 12 10 8 7 7 8 8 8 8 8 8 7 7 7 7 7 7 7 8 8 8 8 7 6 7 7 7 7 7 7 7 6 7 7 8 7 7 8 10 11 11 11 10 8 9 10 11 11 11 10 10 10 11
12 13 13 13 14 14 14 13 12 13 14 15 15 14 14 12 11 9 8 8 9 9 9 9 9 9 8 7 7 7 7 8 7 7 7 7 7 7 6 6 6 7 7 7 6 6 5 6 7 7 8 8 7 7 8 10 10 10 10 9 9 9 9 10 10 8 8 8 9
13 13 13 14 14 14 13 12 11 12 13 13 13 12 11 10 9 9 9 10 9 9 9 10 10 9 8 8 8 8 7 7 6 6 5 5 5 6 6 6 6 6 6 6 6 5 5 6 6 7 7 7 6 6 7 9 9 9 9 9 9 8 8 9 8 7 7 7 7
13 13 13 13 13 13 12 12 10 10 11 12 11 9 8 8 8 8 8 9 9 8 8 8 8 7 7 8 7 7 6 6 5 5 5 4 5 5 5 5 5 5 5 4 5 5 5 5 6 6 6 6 6 6 6 7 7 7 7 8 8 8 8 8 7 7 7 7 6
12 13 12 12 12 12 11 10 9 9 9 10 9 8 7 6 6 7 8 8 7 7 6 6 6 5 5 6 6 5 5 4 4 4 4 4 4 4 4 4 4 4 4 4 4 5 5 5 5 5 5 5 5 5 5 5 5 5 5 6 6 6 7 7 7 7 7 7 7
12 12 12 11 11 11 10 9 8 8 8 8 7 7 6 5 6 6 7 7 6 5 5 5 4 4 4 4 4 4 4 4 4 4 4 4 4 4 3 3 3 3 3 4 4 4 4 4 4 5 5 5 5 5 5 5 5 5 5 5 5 5 6 6 7 7 7 7 7
12 11 11 11 11 11 11 9 8 8 8 7 7 6 6 6 6 6 6 6 5 5 5 5 4 3 3 4 4 4 4 4 4 4 3 3 3 3 3 3 3 2 2 2 3 3 3 3 4 4 4 5 5 5 5 5 5 5 5 5 5 6 6 6 6 6 7 7 7
11 11 11 11 12 12 11 10 9 8 8 7 7 6 6 6 5 5 5 5 5 5 5 5 4 4 4 5 4 4 4 4 4 4 3 3 3 3 3 2 2 2 1 1 1 2 2 3 3 3 3 4 4 4 5 5 5 6 6 6 6 6 6 6 6 6 6 6 6
11 11 11 12 12 11 11 10 9 8 8 7 6 6 6 5 5 4 4 4 4 5 5 5 5 5 5 6 5 5 4 4 4 4 4 4 3 3 3 3 3 2 2 1 0 0 1 1 2 2 2 3 3 4 4 5 5 5 6 6 6 6 6 6 6 6 6 7 7
10 10 11 11 11 11 10 9 9 8 7 6 6 5 5 5 4 4 4 4 4 5 5 5 5 6 6 6 6 6 5 4 4 4 4 4 4 4 4 4 4 3 2 2 1 1 1 1 1 1 2 2 3 3 4 5 5 5 5 5 6 6 7 7 7 8 8 8 8
9 10 10 10 10 10 9 9 8 8 7 6 5 5 5 4 4 4 4 4 4 4 5 5 5 6 6 6 6 6 6 4 4 4 4 4 5 5 5 5 4 4 3 2 2 2 1 1 1 1 1 2 2 3 4 4 5 5 5 5 6 7 7 8 8 9 10 10 10
9 9 9 10 10 9 9 9 9 8 8 7 6 5 5 5 4 4 4 4 4 4 4 4 5 5 5 5 5 6 5 5 4 4 4 4 5 5 5 4 4 4 4 3 2 2 2 1 1 1 1 2 3 3 4 4 5 5 5 6 7 7 8 9 9 10 10 10 11
8 8 9 9 9 9 9 9 9 8 8 7 7 6 6 5 5 5 5 5 4 4 4 3 4 4 4 4 4 5 5 5 5 6 6 5 5 5 5 4 5 5 6 5 4 2 1 0 1 1 2 2 2 3 4 4 5 5 6 7 7 8 8 9 9 10 10 10 10
8 8 8 8 9 9 9 9 9 9 8 8 7 7 7 7 6 6 5 5 5 5 4 4 4 4 4 4 4 4 4 5 6 7 8 8 7 7 6 6 6 6 6 5 5 3 1 1 1 1 1 2 2 2 3 4 5 5 6 7 7 7 8 8 9 9 10 10 10
8 8 8 8 8 8 8 8 8 8 8 7 7 7 8 7 7 6 6 6 6 6 6 5 5 5 5 5 5 4 4 5 6 7 8 9 9 8 7 6 5 5 5 5 6 4 2 3 2 1 0 1 1 2 3 4 5 5 6 6 6 7 7 8 9 9 9 10 10
7 7 7 7 7 7 7 7 7 7 7 7 7 7 7 7 6 6 6 6 6 6 6 6 6 5 5 5 5 5 5 5 5 6 7 8 8 8 7 5 5 4 4 5 5 3 3 4 3 2 1 0 1 2 3 4 4 5 5 5 5 6 6 7 8 8 8 8 9
6 6 6 6 6 6 6 6 6 6 6 6 7 7 7 7 7 6 6 6 6 6 5 5 5 5 5 5 6 6 5 5 5 5 6 7 7 7 6 5 4 4 4 5 2 3 4 4 3 2 1 1 1 1 2 3 4 4 4 4 5 5 5 6 6 7 7 7 7
5 5 5 5 6 6 6 6 6 6 6 6 7 6 6 7 7 7 6 6 5 5 5 4 4 4 4 4 5 5 5 5 5 5 6 6 7 6 5 4 4 4 4 2 1 3 4 3 2 2 1 1 1 1 1 2 3 3 3 3 4 4 4 4 4 5 5 6 6
4 4 5 5 5 6 6 6 6 6 6 6 6 7 7 7 7 7 6 6 5 5 4 4 4 4 4 5 5 6 6 5 5 5 5 6 6 5 4 3 4 4 4 1 2 3 3 3 2 1 1 2 1 1 1 1 1 2 2 2 3 3 3 3 3 4 4 5 5
3 4 4 5 5 5 5 5 6 6 6 6 6 7 7 7 7 7 6 6 5 4 4 4 4 4 5 6 6 6 6 6 5 5 5 6 6 5 4 3 4 4 4 3 3 3 3 3 2 1 1 2 2 1 1 1 1 1 2 2 2 2 3 3 3 3 3 4 4
3 3 3 4 4 5 5 5 5 6 6 6 7 7 7 8 8 7 6 5 5 5 5 4 5 5 6 6 5 5 6 6 6 5 5 6 5 5 4 4 4 4 4 4 3 3 3 2 1 0 1 2 2 1 1 1 1 1 1 2 2 2 2 2 2 3 3 3 4
2 3 3 3 4 4 5 5 5 6 6 6 7 7 7 8 7 7 6 6 6 5 5 5 5 6 6 6 5 5 6 6 6 6 5 5 5 4 4 4 5 5 5 5 4 3 3 3 2 1 0 1 1 1 1 1 1 2 2 2 2 2 2 2 2 2 3 3 3
2 2 3 3 4 4 5 5 5 5 6 6 7 7 7 8 7 7 7 7 6 6 5 5 6 6 6 6 5 5 5 5 5 5 5 4 4 3 4 4 4 5 6 6 5 4 4 3 2 2 2 1 1 1 1 1 1 2 2 2 2 2 2 2 2 2 3 3 3
2 2 2 3 4 4 5 5 5 5 5 6 7 7 7 7 8 8 8 7 6 5 5 5 6 5 5 4 4 4 4 4 4 4 4 4 3 3 3 3 4 5 6 7 6 6 5 5 4 3 3 2 1 2 2 2 2 2 2 3 3 3 3 3 3 3 3 4 4
2 2 3 3 4 4 5 5 5 5 5 6 7 7 7 7 7 8 7 7 5 5 5 5 5 5 5 4 3 3 3 3 4 4 4 4 3 3 3 4 4 5 7 7 7 7 7 6 5 5 3 2 3 3 2 3 3 3 3 4 4 4 4 4 4 4 4 4 4
2 2 3 4 4 5 5 5 5 5 6 7 7 7 7 7 7 7 7 6 6 6 6 6 6 6 5 4 3 3 2 3 4 5 5 4 3 3 4 4 5 6 8 8 8 8 8 8 7 6 4 3 3 3 3 3 3 3 4 4 4 5 5 5 5 5 5 5 5
3 3 3 4 4 5 5 5 5 5 6 7 7 7 7 7 7 6 6 6 5 6 6 6 6 6 5 4 3 3 3 3 3 4 5 5 4 3 4 4 5 7 8 9 8 8 9 9 8 5 3 4 3 3 3 3 3 3 4 4 4 4 4 4 4 5 5 5 6
4 3 3 3 4 5 5 5 5 6 6 7 6 6 6 6 6 6 6 5 5 5 6 6 6 6 5 4 4 4 4 3 3 3 4 4 3 3 3 4 5 6 7 9 10 9 9 8 7 4 4 4 3 3 2 2 3 3 3 3 4 4 4 4 4 4 5 6 8
4 3 3 3 4 4 5 5 5 5 6 6 6 6 6 5 5 5 5 5 4 4 5 5 5 5 5 4 3 3 3 3 3 2 3 3 3 2 3 3 4 5 7 10 11 11 10 9 7 6 7 5 3 2 2 2 2 2 3 3 4 4 4 4 4 4 5 6 10
3 3 2 3 3 4 4 5 5 5 5 5 6 6 6 5 5 5 5 4 4 4 4 4 5 5 4 3 2 3 3 3 3 2 2 3 3 4 4 3 3 4 6 9 11 11 11 10 10 10 8 4 3 2 1 1 2 2 3 3 4 4 4 4 4 4 5 5 8
2 2 2 3 4 4 4 5 5 5 4 4 5 5 5 4 4 4 4 4 4 4 3 3 4 4 4 3 2 2 2 3 3 3 3 3 4 4 4 3 3 3 5 7 9 10 11 11 10 9 7 4 2 1 1 2 2 3 4 4 4 4 4 5 5 4 5 5 5
Wind_Direction
17 15 14 14 11 7 2 360 358 356 353 350 347 344 340 337 335 334 335 337 339 340 340 340 344 352 358 1 0 358 356 355 353 354 357 359 0 359 357 355 356 357 357 356 355 354 356 6 10 13 10 3 354 349 346 342 338 336 336 340 335 328 319 308 302 296 290 282 277
14 13 13 14 12 8 5 2 0 357 355 353 350 346 343 342 342 343 345 348 350 351 350 350 359 7 9 8 8 8 6 5 5 8 12 12 12 10 7 2 1 1 1 3 5 7 12 21 23 22 16 6 353 344 338 333 331 326 323 323 319 311 301 290 283 277 272 267 263
15 14 14 15 12 9 6 2 358 355 353 350 349 348 348 349 351 352 353 355 360 3 4 2 9 13 14 10 12 13 13 13 15 20 23 20 18 16 14 13 19 22 26 31 36 38 36 29 25 20 10 357 344 334 325 317 312 306 301 297 291 282 275 272 274 273 271 266 262
15 15 14 13 10 8 5 0 356 353 351 348 347 348 350 353 358 358 358 1 9 13 14 12 14 15 14 11 13 15 18 19 24 28 30 27 25 24 25 29 36 39 42 43 42 37 29 19 14 8 356 340 325 315 305 297 291 286 282 279 272 265 261 264 275 284 294 308 329
13 13 11 9 6 4 2 358 354 351 348 346 347 347 349 356 0 2 5 12 19 20 19 18 18 15 12 12 15 17 21 24 29 32 34 34 32 32 34 38 42 43 43 39 30 20 10 0 354 345 333 320 309 301 296 293 289 284 279 274 266 257 249 241 243 265 358 19 24
10 8 7 6 3 1 359 356 352 349 347 346 346 346 348 359 4 7 10 18 23 23 21 20 18 14 11 13 18 21 25 28 32 36 38 39 37 35 35 35 36 37 35 28 15 4 355 349 342 334 326 317 313 315 316 314 306 298 291 285 279 274 269 260 237 169 115 105 96
10 8 5 3 1 359 356 353 350 348 347 347 345 345 348 2 9 11 14 24 28 26 22 18 14 12 12 17 22 26 29 33 35 37 38 39 36 33 29 25 24 25 24 18 9 2 357 353 350 349 347 346 349 354 354 350 342 331 322 317 320 325 330 335 343 346 267 216 211
9 7 4 1 360 357 355 353 351 349 349 349 346 347 352 10 15 18 22 30 31 27 20 15 11 12 15 21 26 30 33 36 36 35 34 34 31 28 24 19 17 16 15 13 12 11 10 11 12 8 4 3 6 8 8 8 9 5 358 352 352 351 351 352 352 349 346 343 345
7 5 2 1 360 358 356 355 354 353 353 352 351 355 4 19 22 24 25 28 26 23 19 14 11 13 17 24 29 32 34 35 32 29 27 26 25 23 21 18 15 14 13 13 16 19 23 28 27 21 15 11 10 10 10 13 19 21 20 15 10 7 4 1 2 4 7 11 17
6 4 3 3 2 1 1 360 359 360 0 359 2 8 17 24 24 24 23 19 17 16 16 13 12 13 16 23 28 31 32 31 27 24 22 22 22 21 20 18 17 16 15 15 18 23 28 34 33 28 22 17 14 12 12 14 20 24 25 24 18 15 13 10 10 12 15 18 21
8 8 8 9 7 7 7 6 6 9 11 10 15 20 24 24 21 18 14 9 10 10 9 8 9 10 12 19 26 29 28 25 21 19 19 19 19 19 18 18 19 20 20 18 20 24 30 35 33 30 27 23 19 16 15 15 18 20 21 20 17 16 15 13 12 11 12 14 17
12 13 14 15 13 13 13 13 14 17 19 19 23 26 26 23 16 10 7 8 9 7 4 3 4 5 7 13 21 23 22 19 17 16 16 16 15 15 16 17 18 20 21 21 21 25 31 36 34 31 28 25 22 18 16 14 14 15 15 13 13 13 12 10 9 8 8 10 14
18 19 19 19 18 18 18 17 19 22 23 24 27 28 26 20 13 9 10 12 10 8 6 5 5 6 8 10 14 16 15 12 11 12 12 11 10 12 14 16 16 18 19 19 21 25 32 36 36 33 29 25 23 19 16 14 12 10 8 6 7 6 5 3 1 0 1 4 9
24 23 22 21 20 20 20 19 21 23 24 24 26 26 23 19 15 15 16 17 14 11 10 11 11 12 11 10 9 8 6 4 5 6 8 9 10 13 15 15 15 15 16 16 19 24 29 32 33 31 29 24 20 17 15 15 12 8 4 1 359 357 355 353 350 350 352 356 359
26 24 22 21 22 22 22 20 20 21 21 21 21 20 19 17 17 19 20 19 15 13 12 14 13 12 10 8 2 357 354 352 355 360 4 8 10 12 14 13 13 13 15 17 18 20 23 24 23 23 21 18 13 10 8 8 8 5 0 355 351 348 345 343 342 343 344 346 348
26 23 21 21 22 23 23 21 20 19 18 16 14 13 13 12 15 18 19 16 11 9 9 10 4 360 358 357 350 344 339 339 348 356 2 5 6 7 9 9 8 9 14 19 19 17 16 14 12 11 8 4 359 355 352 352 352 350 347 343 339 337 336 335 336 337 338 339 341
24 21 19 20 22 22 22 21 20 17 15 12 10 9 9 8 12 15 15 11 5 1 359 358 350 343 339 338 338 336 335 339 345 352 357 359 356 356 356 357 354 357 5 16 19 15 10 5 4 1 356 350 343 338 335 335 335 333 332 330 330 329 329 329 330 331 332 334 335
22 19 18 19 21 21 20 19 19 17 15 11 9 8 8 8 8 8 7 3 358 353 348 344 340 338 337 337 336 335 337 340 342 344 346 347 342 338 334 330 324 324 333 0 17 16 7 1 357 352 346 336 328 325 323 324 325 326 328 328 329 330 330 329 328 328 329 331 333
21 18 17 18 18 17 16 16 17 16 15 12 9 7 6 5 2 360 357 354 349 345 341 338 338 340 342 341 339 337 336 337 336 335 334 331 325 318 309 300 292 285 278 265 261 1 0 349 340 331 323 318 317 317 319 322 325 327 330 332 333 334 334 334 334 335 337 339 341
20 18 17 17 14 12 11 11 14 16 17 14 10 6 1 355 353 352 350 343 338 338 339 339 340 344 347 346 341 337 333 331 331 328 324 318 310 301 292 284 278 271 260 243 226 213 215 258 280 286 293 306 319 325 328 330 333 335 336 337 338 340 342 343 345 347 349 351 352
20 18 15 13 9 7 6 8 10 13 16 15 9 1 352 345 344 342 338 331 331 336 341 341 343 347 349 346 341 335 329 326 327 321 313 306 298 290 283 278 276 273 269 257 240 222 212 215 241 265 290 320 339 343 342 341 341 342 343 344 345 346 348 350 351 353 355 356 357
18 17 14 10 3 1 3 6 7 9 12 10 3 354 345 338 333 329 325 324 330 338 343 340 342 343 343 339 333 328 325 324 324 318 309 301 295 290 285 282 289 296 299 295 278 254 228 214 238 288 323 347 356 355 351 349 347 346 346 347 349 350 352 353 353 354 355 356 356
17 15 12 7 0 0 3 8 7 7 6 2 354 347 340 333 326 321 321 325 331 334 334 329 330 329 327 322 320 320 322 325 325 322 318 312 308 306 306 307 316 320 320 314 304 288 261 218 355 354 352 359 360 356 353 353 353 352 351 351 352 352 353 354 354 355 355 354 354
16 15 12 6 1 3 6 10 7 5 1 355 348 342 337 332 326 323 323 326 326 325 322 317 314 312 310 309 310 315 322 328 330 328 326 325 324 325 328 333 333 330 326 321 318 316 323 101 47 11 354 350 352 353 355 358 358 357 355 354 353 353 353 355 356 357 357 355 355
14 14 12 6 3 6 10 11 6 1 355 349 344 340 336 332 328 326 325 325 324 322 319 315 311 308 307 309 312 318 326 334 334 331 329 327 327 329 333 336 332 329 326 323 327 340 49 111 107 87 344 323 341 354 0 1 359 358 356 355 355 355 355 356 358 359 359 358 357
13 13 11 6 5 8 10 9 2 355 349 344 342 339 336 332 329 327 326 325 323 321 319 317 315 313 311 312 317 323 331 335 333 329 324 321 322 325 328 329 325 323 322 325 340 20 84 113 121 136 162 261 2 9 6 358 354 353 353 353 355 357 358 358 358 359 0 1 359
13 11 8 5 6 7 7 2 355 349 344 341 340 337 334 331 330 329 327 324 322 321 321 322 321 318 315 315 320 323 325 324 320 316 312 309 313 317 321 319 316 313 316 325 4 85 114 125 133 141 149 149 66 33 15 353 346 346 348 350 353 356 359 359 357 358 359 0 360
10 8 6 6 5 3 359 354 349 344 340 337 335 333 331 331 330 328 326 323 323 324 326 327 326 324 322 321 318 313 309 306 304 302 302 303 308 311 314 308 304 302 304 320 96 127 139 150 150 146 138 135 92 58 27 353 340 340 342 345 348 351 353 354 355 358 0 360 0
6 5 6 7 2 357 352 347 342 338 334 332 332 332 333 332 330 327 324 323 325 326 325 324 324 325 324 318 309 304 299 296 295 296 299 304 309 310 306 293 290 289 288 264 162 158 164 171 168 146 108 97 81 61 29 357 336 331 331 334 340 342 343 343 349 356 0 2 2
0 3 5 4 357 350 344 339 334 332 331 332 333 334 334 333 329 325 322 320 319 315 310 309 313 315 311 305 302 299 297 294 294 297 301 306 309 306 297 282 276 272 265 235 195 184 184 185 181 130 67 65 60 47 12 341 323 316 317 320 328 332 332 331 340 349 357 2 4
354 359 1 359 350 342 334 328 328 329 331 333 334 334 333 331 326 322 316 312 306 301 299 301 305 304 302 299 298 297 296 296 300 303 306 310 309 303 292 283 277 271 261 243 220 208 203 202 196 139 51 49 43 24 343 323 303 295 293 300 314 319 320 320 333 345 354 1 6
344 351 354 350 339 329 323 322 325 328 330 332 332 331 330 326 321 316 312 308 304 303 303 304 303 302 300 300 300 301 302 304 308 310 312 314 311 304 295 289 286 282 274 260 244 232 227 224 222 238 349 20 29 11 334 317 298 287 284 289 300 308 310 315 326 339 350 358 4
331 339 342 335 323 316 314 317 321 325 328 330 329 327 325 322 319 317 316 313 311 308 306 304 302 301 300 300 302 305 309 312 314 315 316 317 312 305 299 297 293 289 286 278 266 256 250 243 240 250 272 295 3 23 2 333 311 304 303 309 312 313 314 315 324 335 344 349 352
313 322 324 316 308 305 306 311 316 321 325 326 324 322 320 319 319 319 318 316 313 310 306 303 301 300 299 297 298 303 309 313 316 318 318 318 313 310 309 309 301 297 294 289 276 269 264 260 258 264 278 311 14 30 15 348 333 329 332 336 335 333 329 325 328 334 338 340 340
291 303 306 300 297 297 300 306 312 317 321 321 319 317 316 316 316 315 313 311 310 308 307 305 305 305 305 303 300 302 309 317 319 320 321 323 325 326 323 318 311 307 303 296 284 277 274 273 273 278 294 355 31 33 17 355 346 346 349 350 347 341 336 331 330 331 333 334 333
268 279 287 288 290 292 297 302 309 315 317 316 314 313 313 313 312 310 309 308 309 310 310 310 312 314 316 316 311 308 312 323 325 326 328 331 338 338 333 326 323 322 318 310 297 288 283 281 281 289 315 17 33 30 18 4 359 358 358 357 348 339 331 326 325 325 326 328 326
254 260 270 280 285 290 295 300 308 312 313 311 310 309 310 310 309 308 308 311 313 314 313 314 317 319 320 317 310 307 311 327 334 334 333 336 342 344 340 337 337 336 335 332 323 311 300 292 288 298 353 41 36 27 18 10 9 6 2 355 340 329 321 316 316 318 320 322 323
251 253 262 275 284 289 294 300 304 306 306 306 305 306 307 308 307 307 309 312 315 315 315 316 318 319 317 314 307 308 318 336 345 344 339 338 341 348 355 355 351 350 353 0 360 351 337 322 313 336 40 65 50 36 27 19 12 5 355 343 331 322 316 311 311 314 316 318 326
253 255 263 276 282 287 291 294 296 298 300 302 303 305 306 305 304 304 305 309 312 314 314 314 313 314 313 313 315 324 334 343 346 347 343 340 350 14 31 24 7 3 9 18 20 15 8 2 14 42 64 79 72 61 49 32 11 355 343 333 328 323 319 315 313 313 314 313 325
260 264 271 275 277 279 282 285 287 289 294 300 303 303 302 298 295 297 301 306 310 312 311 308 305 307 309 314 324 336 342 341 340 342 346 350 16 37 47 46 21 11 15 23 27 27 28 34 51 63 72 80 79 76 64 34 3 347 337 331 329 327 323 319 316 314 312 310 319
272 275 274 269 267 268 271 275 281 286 294 302 301 299 294 290 290 293 300 308 311 311 308 303 301 304 308 316 327 340 341 336 333 338 352 9 27 38 44 46 29 15 14 22 30 35 40 47 56 63 68 73 70 62 41 18 357 343 334 327 327 327 324 320 318 316 313 310 310